STARLINK-35397, 65825

Orbit data source: Space-Track

STARLINK-35397, 65825 is a payload satellite owned by SpaceX/Seattle (US) in LEO that was launched on Mon, 29 Sep 2025 UTC via an FALCON 9 launch vehicle from the Air Force Western Test Range (AFWTR). Payload-class satellites include a variety of spacecraft equipped with specific instruments for various scientific and technological missions. These include communications satellites like Starlink; space stations such as the ISS; scientific satellites like the Hubble; Earth observation satellites from companies like Planet Labs, Umbra, and HawkEye 360; GPS; miniature CubeSats for education and research; and military/defense satellites.

Loading next visibility...
Identifier
65825, 2025-221C
Orbit
LEO
Country
Flag of USUS
Related business
Manufacturer
SpaceX/Seattle
Mission
Operational Commercial Communications
Bus & Motor
STARLINK V2MO, Unknown motor
Mass
575 kg wet, ~530 kg dry
Launch date (UTC)
2025-09-29 (1 month ago)
Launch vehicle
FALCON 9
Launch site
Air Force Western Test Range (AFWTR)
Object type
Payload
Rocket body
Debris
Shape & HBR
Box + 2 Pan, 17.7 m
Radar Cross Section
36.964 m²

Expand to show TLE details & history
Last TLE update: 1 day ago

TLE from 1 day ago
0 STARLINK-35397
1 65825U 25221C   25312.83335647  .00081302  00000-0  27325-2 0  9995
2 65825  53.1604 289.7545 0001288  95.5319 100.4165 15.30138156  5856
Epoch: 2025-11-08T20:00Z
TLE epoch observation values (Epoch: 2025-11-08T20:00:01.999Z)
Latitude
-12.86667°
Longitude
131.28712°
Altitude
479.01 km
Speed
7.626 km/s
True Right ascension
07h 58m 12s
True Declination
-12° 47' 21"
Sunlit
Object was in daylight at epoch
Visualization orbit readout
Latitude
Unknown
Longitude
Unknown
Altitude
Unknown
Speed
Unknown
Apparent Right ascension
Unknown
Apparent Declination
Unknown
Sunlit
N/A
Visualization observer readout
Local Sidereal Time
03:37:38
Azimuth
Unknown
Elevation
Unknown
Doppler factor
Unknown
Orbital elements
Apogee altitude
476.539 km
Perigee altitude
474.773 km
Semi-major axis
6,853.793 km
Eccentricity
0.00013
Inclination
53.1604°
RAAN
289.7545°
Arg. of periapsis
95.5319°
True anomaly
100.43102°
Mean anomaly
100.4165°
Eccentric anomaly
100.42376°
Mean motion
3.82513 °/min
Orbital period
94.11 mins
BSTAR
0.0027325
Loading maneuver chart data...
Computing Atmospheric mass density...
Loading historical data...
Loading historical data...
Loading historical data...
Loading historical data...
Loading historical data...
Loading historical data...
Loading historical data...

Documentation

Showing up to 5 results
|